Wind_Speed
11 10 11 11 9 10 12 12 13 14 13 14 14 14 13 12 13 12 11 11 12 12 13 13 12 12 13 13 12 11 11 11 11 11 13 14 16 16 15 14 19 13 13
12 10 11 11 10 11 12 13 12 12 13 13 13 13 14 14 14 13 12 12 12 13 13 12 12 14 14 13 13 12 10 11 11 10 11 14 18 16 16 15 14 13 15
12 11 11 12 12 12 11 11 10 11 13 13 14 14 14 14 16 16 16 15 15 15 15 15 15 15 14 15 16 16 14 13 11 9 3 10 17 17 15 17 15 14 14
13 12 12 13 11 11 10 9 11 12 13 14 14 14 14 14 16 17 18 17 18 18 17 16 16 16 17 17 17 18 18 14 15 16 17 23 18 16 14 14 15 14 12
13 13 10 11 11 10 8 9 12 14 14 15 16 15 15 15 15 16 18 19 20 20 21 21 20 19 19 18 17 16 14 10 12 18 24 22 18 17 15 13 14 14 13
16 12 13 12 10 9 7 12 14 14 15 16 17 17 17 16 16 17 17 18 19 20 20 21 22 22 21 20 19 16 16 19 17 20 20 22 24 24 22 19 17 17 13
14 13 12 11 10 10 10 12 14 14 15 15 16 18 18 18 18 18 18 17 18 19 19 20 20 20 20 19 18 18 19 19 18 18 21 21 23 23 24 25 25 23 20
12 12 11 9 9 9 12 14 16 15 15 14 16 16 16 17 18 18 19 18 18 18 19 20 20 20 21 22 22 19 19 19 18 20 19 21 24 24 25 24 24 24 24
12 11 10 9 10 14 17 15 14 14 15 15 16 16 16 16 17 17 17 18 18 18 18 19 19 19 19 20 21 21 21 22 18 18 20 20 22 22 23 24 24 23 24
11 11 11 11 12 12 11 12 11 11 13 15 16 16 16 18 18 17 16 17 16 16 17 17 17 18 19 20 18 19 16 17 16 16 17 19 20 20 21 21 21 22 22
11 11 12 12 12 11 11 10 9 11 12 13 13 11 6 12 13 14 16 17 18 17 18 18 18 14 9 16 20 18 16 15 15 15 14 17 18 19 19 20 20 20 20
13 13 13 13 12 11 11 10 10 9 9 8 8 9 9 11 12 13 16 17 19 18 19 19 19 17 15 13 14 15 14 12 12 13 13 14 16 17 18 19 19 18 18
15 14 14 14 13 12 11 11 10 10 9 8 8 8 9 8 7 8 9 9 11 13 12 14 14 15 15 14 14 14 13 12 11 10 13 12 14 16 17 17 18 19 17
16 14 13 13 13 12 12 10 11 10 9 9 8 9 9 9 9 9 10 10 10 11 12 12 12 13 13 13 12 12 12 12 10 8 10 14 15 15 17 17 16 17 19
16 16 14 13 13 12 10 11 10 10 9 9 9 9 9 10 10 10 10 10 11 11 11 11 10 11 10 11 11 11 11 11 10 9 4 11 17 17 17 17 18 17 17
18 16 15 14 12 12 11 11 11 10 10 9 9 9 10 10 10 10 10 10 11 10 10 10 10 10 10 10 10 10 9 9 9 10 9 9 12 14 19 18 18 17 17
18 17 16 15 13 12 12 12 11 11 10 10 11 10 10 9 9 9 9 9 9 9 8 8 8 9 10 10 10 9 9 8 8 9 10 11 13 14 17 19 21 17 18
18 19 17 16 15 13 12 11 11 12 11 11 10 9 9 9 8 8 8 8 7 7 8 8 10 11 11 13 14 10 10 9 8 9 10 13 13 14 17 22 20 14 16
19 19 18 17 16 15 14 11 11 11 11 11 10 9 9 8 7 7 7 6 6 7 8 9 9 10 12 14 17 12 9 8 8 9 11 15 11 15 15 19 20 10 16
20 19 19 19 17 15 15 13 12 12 11 10 10 9 9 8 7 6 6 5 5 6 8 9 9 10 10 15 17 17 14 7 7 8 14 14 14 14 17 18 18 17 15
23 21 21 21 20 18 16 16 14 13 12 11 10 10 9 8 6 5 4 4 5 7 7 9 11 12 13 14 16 19 16 5 3 8 20 11 13 14 17 18 17 17 18
24 23 22 22 22 20 17 15 14 14 13 12 11 10 8 8 6 4 4 4 4 4 7 9 11 12 14 13 15 15 8 12 13 22 7 11 14 17 18 17 16 16 16
27 26 24 24 24 21 17 16 15 14 13 12 12 10 9 8 6 5 4 4 4 5 6 8 10 12 14 13 14 12 6 7 20 12 12 15 17 18 17 18 16 17 14
29 27 25 25 25 22 20 19 18 18 15 14 13 12 11 9 7 6 5 4 4 4 6 7 9 11 11 13 14 12 11 13 9 8 14 18 17 16 17 16 17 13 10
30 29 27 26 26 24 23 20 20 16 14 15 14 13 11 9 8 6 5 4 4 4 6 8 9 11 11 11 13 13 12 12 12 13 10 17 17 17 16 16 14 14 13
30 29 29 29 27 25 24 22 21 18 15 16 16 15 13 10 8 6 5 4 5 5 6 7 8 9 10 10 10 10 11 11 12 13 12 15 17 18 16 13 11 13 13
Wind_Direction
102 102 105 100 92 91 84 69 65 62 59 59 56 54 52 52 54 59 56 54 48 47 46 48 48 48 49 45 44 47 51 54 60 66 68 67 62 52 53 49 60 38 39
110 106 102 106 95 93 73 68 67 67 64 60 59 56 55 54 53 51 51 52 51 51 48 47 50 50 50 49 47 44 43 49 63 66 68 59 52 49 46 45 49 44 35
107 106 98 103 105 93 88 82 75 68 66 66 64 63 63 60 58 58 63 67 61 59 57 58 58 54 54 55 54 54 55 61 62 58 64 74 57 45 34 35 33 31 28
109 111 101 98 106 98 83 81 77 75 74 75 74 72 71 68 64 64 70 73 67 66 66 66 65 64 63 64 64 65 68 60 33 27 26 35 36 32 31 30 26 17 31
105 95 97 105 106 92 76 91 85 84 82 79 79 77 75 72 69 69 74 71 70 70 69 69 72 71 69 68 68 68 62 41 54 42 42 32 32 28 29 26 23 15 19
110 115 105 113 108 97 98 97 96 92 90 88 87 79 74 72 69 69 73 73 71 70 70 72 72 70 67 65 65 66 55 39 85 67 56 33 31 34 36 33 27 18 6
120 125 115 110 107 100 109 108 103 94 90 92 88 83 77 75 74 74 74 75 74 74 73 71 69 66 63 62 61 65 60 46 44 44 51 38 34 34 33 33 33 30 31
125 123 125 118 115 114 112 111 102 93 92 94 89 87 87 82 77 75 75 76 76 75 73 71 68 65 63 63 64 67 59 53 55 53 47 43 39 38 37 36 33 31 33
128 126 128 120 120 120 117 112 101 92 92 95 88 83 86 83 76 73 78 78 80 80 75 72 68 62 60 62 66 63 56 47 61 54 48 42 39 37 35 35 34 32 32
127 130 129 126 124 120 112 114 109 103 97 94 90 84 83 77 73 70 65 75 76 77 75 72 68 63 55 56 63 56 48 58 51 52 47 45 37 35 33 31 31 31 32
131 131 130 130 130 126 123 118 112 112 99 91 85 79 72 84 81 75 76 75 71 71 67 67 63 39 58 44 46 43 46 47 50 46 42 43 35 31 31 32 32 31 31
139 136 135 134 134 134 131 131 126 130 111 102 91 84 94 90 89 83 73 72 68 66 60 58 52 48 50 42 36 40 40 38 51 46 38 46 37 32 29 28 28 27 27
144 141 143 141 140 141 134 138 135 128 116 98 94 98 99 96 91 87 79 75 66 65 61 55 51 49 48 45 41 37 32 30 35 46 35 31 33 32 28 25 23 24 23
149 148 146 146 145 144 142 142 137 131 124 109 98 97 99 100 95 90 86 82 73 65 59 54 51 48 47 42 41 36 33 31 25 47 37 24 22 27 28 22 17 13 15
148 150 149 148 147 149 153 140 133 130 124 116 106 100 104 104 99 94 87 79 70 63 56 49 45 39 36 34 33 30 29 28 25 18 39 8 7 8 12 19 17 14 10
153 156 151 151 149 151 141 142 140 129 129 121 112 109 106 108 105 98 90 78 67 59 50 43 36 25 20 13 16 15 19 17 17 15 4 0 6 4 2 360 10 7 5
158 160 158 155 152 153 149 148 145 141 135 127 122 114 110 109 104 98 88 76 66 55 45 32 20 16 6 356 355 355 351 1 2 4 4 0 355 359 8 10 6 1 4
160 165 165 162 157 156 156 154 148 146 139 135 131 125 117 112 108 100 90 77 65 51 38 27 16 4 1 353 340 340 336 338 349 351 357 353 352 352 344 9 2 346 4
160 165 169 168 165 161 162 159 153 148 143 141 139 133 126 119 112 105 93 79 61 49 35 19 15 6 359 354 337 337 324 324 331 339 341 340 342 349 346 346 353 337 0
164 166 169 172 171 167 164 164 160 158 150 147 145 145 133 128 117 110 97 78 56 42 32 23 8 3 356 349 334 336 318 266 304 324 331 336 333 346 341 341 342 339 345
167 168 170 172 173 170 172 175 169 164 159 155 151 146 142 139 130 122 106 81 64 48 36 21 5 357 355 357 347 340 330 276 161 335 327 328 336 336 339 339 342 339 334
173 174 173 174 175 177 178 177 175 168 167 162 158 156 154 148 145 135 119 88 55 50 35 21 13 1 353 360 353 341 341 329 347 337 347 334 347 332 335 335 336 339 338
178 178 179 177 178 181 178 174 168 164 162 163 165 164 162 159 152 141 121 104 66 47 29 18 12 6 351 353 359 4 341 340 331 338 332 336 334 335 331 333 334 335 342
182 181 181 178 180 182 180 176 177 175 176 180 175 169 165 164 159 151 132 108 71 52 36 21 15 9 5 352 350 352 338 327 329 322 329 329 334 333 338 338 333 329 6
180 182 183 180 181 182 184 182 182 183 186 174 173 167 168 168 165 158 142 113 82 67 50 44 29 18 9 355 351 343 341 334 329 328 320 334 330 337 336 337 339 329 333
179 180 183 183 183 183 186 187 188 192 182 174 176 175 175 174 171 166 150 123 100 84 61 45 27 19 10 5 353 348 345 338 338 330 329 326 334 332 333 331 335 332 332
Height
841 846 847 849 850 852 852 853 853 853 853 852 852 851 850 849 848 848 847 847 847 846 845 844 843 842 841 840 839 838 837 836 836 836 835 834 833 833 833 832 832 833 832
843 848 849 851 852 853 853 854 855 855 854 854 853 853 852 852 851 850 850 849 849 849 848 847 845 844 843 841 840 840 839 838 837 837 836 838 835 836 835 835 834 834 834
846 849 851 852 854 855 855 856 857 857 856 856 855 855 855 855 854 853 852 852 851 851 850 849 848 846 844 844 843 842 841 841 840 838 837 837 836 837 838 836 836 835 834
848 850 854 854 856 857 857 858 858 858 859 858 858 858 858 857 856 856 855 854 853 853 852 851 850 848 847 847 846 845 844 843 842 842 839 838 840 840 840 839 839 837 836
849 852 855 856 857 858 859 859 859 860 861 861 860 860 860 859 859 858 858 857 857 856 855 854 853 852 851 849 849 847 846 844 844 842 842 846 846 843 842 841 841 839 837
851 854 856 857 858 859 861 862 861 862 863 863 863 863 863 862 862 861 861 861 860 859 858 857 856 855 854 853 852 850 848 845 845 845 848 851 849 847 844 843 841 840 839
851 855 857 858 859 861 862 863 863 864 864 865 865 865 866 865 864 864 863 863 863 862 861 861 860 859 857 856 855 854 852 850 848 849 851 855 854 850 848 846 844 842 841
853 856 859 860 861 862 864 865 866 866 866 867 867 868 868 868 867 867 867 866 866 865 865 864 863 862 861 860 858 857 855 854 855 855 856 857 857 854 852 850 848 845 844
854 856 859 862 863 864 865 867 868 869 869 870 870 871 871 871 871 871 870 870 869 869 868 867 867 866 865 864 862 861 859 857 858 860 860 861 860 857 855 853 851 848 846
855 857 860 863 866 868 869 869 870 871 872 873 873 874 874 874 875 875 874 873 873 872 871 871 870 869 868 867 866 864 862 861 862 863 864 864 862 861 858 856 854 852 850
856 858 861 863 867 869 871 872 873 873 874 875 876 876 876 878 878 878 877 877 876 875 875 874 873 871 870 869 869 866 865 865 865 866 867 866 865 863 861 859 857 855 853
856 858 861 864 867 869 871 873 876 876 876 877 878 879 879 879 880 881 881 880 879 879 878 877 876 874 872 873 871 869 868 868 868 870 869 867 867 865 863 862 859 857 855
856 859 862 864 867 869 872 874 875 877 879 880 880 881 881 882 882 883 883 883 883 881 881 880 879 878 877 876 875 874 872 870 870 871 870 869 867 867 865 863 861 860 857
854 860 864 866 867 869 871 873 875 877 879 881 882 883 883 884 885 884 885 885 885 885 883 883 882 882 880 880 878 877 876 874 873 872 872 871 870 867 866 865 863 861 859
854 858 863 867 869 871 872 874 876 879 880 882 884 885 885 886 887 887 888 887 887 887 886 885 885 884 882 882 881 879 877 876 875 874 871 871 870 868 867 866 864 862 860
852 858 862 867 870 872 873 875 878 879 882 883 885 887 888 888 889 889 889 890 890 889 889 888 887 885 884 883 882 881 879 878 877 876 874 871 870 868 867 866 864 863 861
852 858 862 866 869 872 875 877 878 880 882 884 887 888 889 890 891 891 892 892 892 891 891 890 888 887 885 883 881 880 879 878 878 877 875 874 872 869 867 866 865 864 862
849 856 861 865 869 872 875 877 878 881 882 885 887 890 891 892 893 893 893 893 893 893 892 891 890 888 886 883 880 879 879 878 878 877 876 876 874 873 870 867 866 864 862
848 854 860 864 868 871 875 877 879 881 883 886 888 890 891 893 894 895 895 895 894 894 893 892 891 890 888 885 880 877 876 877 877 876 876 875 873 873 871 869 867 864 862
846 852 858 863 867 870 874 877 879 881 883 886 888 890 892 893 894 895 895 895 895 894 895 894 893 891 889 887 883 878 874 874 875 875 874 873 872 872 871 869 868 866 864
844 849 855 860 865 869 872 875 877 879 883 885 888 890 892 893 894 895 896 896 896 896 896 895 894 891 888 887 884 880 872 869 873 874 873 872 872 872 871 869 868 866 864
840 846 852 856 862 866 869 872 875 878 881 884 887 890 891 892 894 895 896 896 896 896 897 896 895 893 890 888 887 882 877 871 870 873 872 872 872 872 871 869 868 867 865
835 842 848 852 858 862 866 869 873 877 880 883 887 889 890 892 894 895 896 896 896 897 897 897 896 894 892 889 889 888 881 879 879 873 872 873 873 873 871 870 868 867 865
830 837 844 849 855 859 863 867 870 873 877 880 884 887 889 891 893 894 895 896 897 897 897 897 896 896 894 892 891 890 891 888 884 876 875 874 873 872 871 870 869 867 866
825 833 840 845 851 856 860 864 869 871 873 877 882 886 888 891 892 894 895 896 897 897 898 897 897 897 896 895 894 892 890 888 886 883 877 875 874 872 871 869 868 866 865
821 828 835 841 847 853 858 862 866 868 870 875 879 884 886 889 892 893 895 896 897 897 897 898 898 898 897 896 896 894 891 890 887 886 882 878 876 872 870 868 866 865 864